• En España
  • Lista de países
  • Para 7 días
  • Temperatura del agua
  • Mapa Satelital
  • El tiempo en el mapa
  • Informadores
  • user-avatar
    Iniciar sesión

    Tiempo cada hora Castlebar

    Hoy, 19 Septiembre, Miércoles

    Tiempo Temperatura Precipitaciones Viento Presión Humedad
    00:00 +10°C° 0.3 mm 7 mps 744 mmHg 80%
    01:00 +10°C° 0.3 mm 6 mps 743 mmHg 83%
    02:00 +10°C° 0.3 mm 6 mps 743 mmHg 86%
    03:00 +11°C° 2.7 mm 9 mps 741 mmHg 87%
    04:00 +12°C° 2.7 mm 11 mps 739 mmHg 87%
    05:00 +13°C° 2.7 mm 14 mps 737 mmHg 87%
    06:00 +11°C° 0.3 mm 15 mps 737 mmHg 84%
    07:00 +10°C° 0.3 mm 15 mps 738 mmHg 80%
    08:00 +9°C° 0.3 mm 16 mps 739 mmHg 76%
    09:00 +9°C° 0.1 mm 15 mps 741 mmHg 71%
    10:00 +10°C° 0.1 mm 14 mps 743 mmHg 67%
    11:00 +10°C° 0.1 mm 13 mps 745 mmHg 62%
    12:00 +10°C° 0.1 mm 13 mps 746 mmHg 62%
    13:00 +10°C° 0.1 mm 13 mps 746 mmHg 61%
    14:00 +10°C° 0.1 mm 13 mps 747 mmHg 60%
    15:00 +10°C° 0.1 mm 12 mps 747 mmHg 63%
    16:00 +9°C° 0.1 mm 11 mps 748 mmHg 66%
    17:00 +9°C° 0.1 mm 10 mps 748 mmHg 68%
    18:00 +8°C° 0.1 mm 9 mps 749 mmHg 70%
    19:00 +9°C° 0.1 mm 8 mps 750 mmHg 71%
    20:00 +9°C° 0.1 mm 7 mps 750 mmHg 72%
    21:00 +9°C° 0.1 mm 7 mps 750 mmHg 73%
    22:00 +8°C° 0.1 mm 7 mps 750 mmHg 74%
    23:00 +8°C° 0.1 mm 6 mps 750 mmHg 75%

    Mañana, 20 Septiembre, Jueves

    Tiempo Temperatura Precipitaciones Viento Presión Humedad
    00:00 +8°C° 0 mm 6 mps 750 mmHg 76%
    01:00 +8°C° 0 mm 6 mps 750 mmHg 77%
    02:00 +8°C° 0 mm 6 mps 750 mmHg 79%
    03:00 +7°C° 0 mm 5 mps 750 mmHg 80%
    04:00 +7°C° 0 mm 5 mps 750 mmHg 81%
    05:00 +7°C° 0 mm 4 mps 750 mmHg 83%
    06:00 +8°C° 0 mm 4 mps 750 mmHg 80%
    07:00 +10°C° 0 mm 4 mps 750 mmHg 78%
    08:00 +11°C° 0 mm 4 mps 750 mmHg 75%
    09:00 +11°C° 0.1 mm 3 mps 749 mmHg 75%
    10:00 +11°C° 0.1 mm 3 mps 749 mmHg 75%
    11:00 +13°C° 0.1 mm 2 mps 748 mmHg 75%
    12:00 +12°C° 1.2 mm 2 mps 748 mmHg 80%
    13:00 +10°C° 1.2 mm 2 mps 747 mmHg 85%
    14:00 +10°C° 1.2 mm 1 mps 746 mmHg 90%
    15:00 +9°C° 1.4 mm 2 mps 745 mmHg 91%
    16:00 +8°C° 1.4 mm 2 mps 745 mmHg 91%
    17:00 +8°C° 1.4 mm 3 mps 744 mmHg 92%
    18:00 +7°C° 0.3 mm 4 mps 745 mmHg 91%
    19:00 +7°C° 0.3 mm 4 mps 745 mmHg 89%
    20:00 +6°C° 0.3 mm 4 mps 746 mmHg 88%
    21:00 +7°C° 0.3 mm 5 mps 746 mmHg 86%
    22:00 +7°C° 0.3 mm 6 mps 746 mmHg 85%
    23:00 +7°C° 0.3 mm 6 mps 746 mmHg 84%

    Pasado mañana, 21 Septiembre, Viernes

    Tiempo Temperatura Precipitaciones Viento Presión Humedad
    00:00 +6°C° 0.3 mm 7 mps 746 mmHg 85%
    01:00 +5°C° 0.3 mm 7 mps 746 mmHg 85%
    02:00 +5°C° 0.3 mm 7 mps 746 mmHg 86%
    03:00 +6°C° 0.8 mm 8 mps 746 mmHg 86%
    04:00 +6°C° 0.8 mm 8 mps 747 mmHg 85%
    05:00 +7°C° 0.8 mm 9 mps 747 mmHg 85%
    06:00 +8°C° 0.1 mm 9 mps 748 mmHg 83%
    07:00 +8°C° 0.1 mm 9 mps 749 mmHg 80%
    08:00 +8°C° 0.1 mm 9 mps 750 mmHg 78%
    09:00 +10°C° 0 mm 8 mps 751 mmHg 75%
    10:00 +10°C° 0 mm 8 mps 752 mmHg 72%
    11:00 +10°C° 0 mm 8 mps 753 mmHg 69%
    12:00 +10°C° 0 mm 8 mps 754 mmHg 68%
    13:00 +10°C° 0 mm 8 mps 754 mmHg 67%
    14:00 +10°C° 0 mm 8 mps 755 mmHg 66%
    15:00 +10°C° 0 mm 7 mps 755 mmHg 69%
    16:00 +9°C° 0 mm 6 mps 756 mmHg 71%
    17:00 +9°C° 0 mm 6 mps 757 mmHg 73%
    18:00 +8°C° 0 mm 6 mps 757 mmHg 75%
    19:00 +7°C° 0 mm 6 mps 758 mmHg 77%
    20:00 +7°C° 0 mm 5 mps 758 mmHg 79%
    21:00 +7°C° 0 mm 5 mps 759 mmHg 78%
    22:00 +7°C° 0 mm 5 mps 759 mmHg 78%
    23:00 +7°C° 0 mm 5 mps 759 mmHg 77%

    22 Septiembre, Sábado

    Tiempo Temperatura Precipitaciones Viento Presión Humedad
    00:00 +7°C° 0 mm 5 mps 759 mmHg 77%
    01:00 +7°C° 0 mm 5 mps 760 mmHg 77%
    02:00 +6°C° 0 mm 5 mps 760 mmHg 78%
    03:00 +6°C° 0 mm 5 mps 760 mmHg 79%
    04:00 +6°C° 0 mm 4 mps 760 mmHg 80%
    05:00 +6°C° 0 mm 4 mps 761 mmHg 81%
    06:00 +7°C° 0 mm 4 mps 761 mmHg 77%
    07:00 +8°C° 0 mm 4 mps 761 mmHg 74%
    08:00 +10°C° 0 mm 4 mps 761 mmHg 70%
    09:00 +11°C° 0 mm 3 mps 761 mmHg 67%
    10:00 +11°C° 0 mm 3 mps 762 mmHg 64%
    11:00 +13°C° 0 mm 2 mps 762 mmHg 61%
    12:00 +13°C° 0 mm 2 mps 761 mmHg 61%
    13:00 +13°C° 0 mm 2 mps 761 mmHg 61%
    14:00 +13°C° 0 mm 1 mps 761 mmHg 60%
    15:00 +12°C° 0.2 mm 1 mps 760 mmHg 66%
    16:00 +10°C° 0.2 mm 2 mps 759 mmHg 73%
    17:00 +9°C° 0.2 mm 2 mps 758 mmHg 79%
    18:00 +9°C° 1.7 mm 3 mps 757 mmHg 84%
    19:00 +7°C° 1.7 mm 4 mps 756 mmHg 88%
    20:00 +6°C° 1.7 mm 5 mps 755 mmHg 93%
    21:00 +5°C° 5.3 mm 7 mps 753 mmHg 93%
    22:00 +4°C° 5.3 mm 8 mps 751 mmHg 94%
    23:00 +3°C° 5.3 mm 10 mps 749 mmHg 94%

    23 Septiembre, Domingo

    Tiempo Temperatura Precipitaciones Viento Presión Humedad
    00:00 +3°C° 6.5 mm 10 mps 747 mmHg 93%
    01:00 +3°C° 6.5 mm 11 mps 745 mmHg 93%
    02:00 +3°C° 6.5 mm 12 mps 742 mmHg 92%
    03:00 +3°C° 2.7 mm 12 mps 742 mmHg 92%
    04:00 +4°C° 2.7 mm 12 mps 741 mmHg 92%
    05:00 +4°C° 2.7 mm 13 mps 740 mmHg 91%
    06:00 +4°C° 1.9 mm 13 mps 742 mmHg 89%
    07:00 +5°C° 1.9 mm 13 mps 744 mmHg 87%
    08:00 +6°C° 1.9 mm 14 mps 746 mmHg 85%
    09:00 +6°C° 0.1 mm 14 mps 749 mmHg 80%
    10:00 +8°C° 0.1 mm 14 mps 751 mmHg 74%
    11:00 +9°C° 0.1 mm 13 mps 754 mmHg 69%
    12:00 +9°C° 0 mm 13 mps 755 mmHg 67%
    13:00 +10°C° 0 mm 12 mps 757 mmHg 65%
    14:00 +11°C° 0 mm 11 mps 759 mmHg 63%
    15:00 +9°C° 0 mm 10 mps 760 mmHg 67%
    16:00 +8°C° 0 mm 9 mps 762 mmHg 70%
    17:00 +9°C° 0 mm 7 mps 763 mmHg 74%
    18:00 +8°C° 0 mm 7 mps 764 mmHg 76%
    19:00 +8°C° 0 mm 6 mps 766 mmHg 79%
    20:00 +7°C° 0 mm 5 mps 767 mmHg 81%
    21:00 +7°C° 0 mm 5 mps 768 mmHg 81%
    22:00 +6°C° 0 mm 4 mps 768 mmHg 81%
    23:00 +6°C° 0 mm 4 mps 769 mmHg 82%

    24 Septiembre, Lunes

    Tiempo Temperatura Precipitaciones Viento Presión Humedad
    00:00 +6°C° 0 mm 4 mps 769 mmHg 82%
    01:00 +6°C° 0 mm 4 mps 770 mmHg 82%
    02:00 +6°C° 0 mm 4 mps 770 mmHg 82%
    03:00 +6°C° 0 mm 4 mps 771 mmHg 83%
    04:00 +6°C° 0 mm 4 mps 771 mmHg 83%
    05:00 +6°C° 0 mm 4 mps 772 mmHg 84%
    06:00 +8°C° 0 mm 3 mps 772 mmHg 80%
    07:00 +9°C° 0 mm 3 mps 772 mmHg 76%
    08:00 +10°C° 0 mm 3 mps 773 mmHg 72%
    09:00 +11°C° 0 mm 4 mps 773 mmHg 71%
    10:00 +12°C° 0 mm 4 mps 773 mmHg 69%
    11:00 +13°C° 0 mm 5 mps 773 mmHg 67%
    12:00 +13°C° 0.1 mm 5 mps 773 mmHg 68%
    13:00 +13°C° 0.1 mm 5 mps 773 mmHg 69%
    14:00 +13°C° 0.1 mm 5 mps 773 mmHg 71%
    15:00 +12°C° 0 mm 5 mps 773 mmHg 74%
    16:00 +10°C° 0 mm 5 mps 773 mmHg 78%
    17:00 +11°C° 0 mm 4 mps 773 mmHg 82%
    18:00 +10°C° 0 mm 4 mps 773 mmHg 84%
    19:00 +8°C° 0 mm 4 mps 773 mmHg 87%
    20:00 +8°C° 0 mm 4 mps 773 mmHg 89%
    21:00 +8°C° 0 mm 4 mps 773 mmHg 90%
    22:00 +8°C° 0 mm 3 mps 773 mmHg 90%
    23:00 +8°C° 0 mm 3 mps 773 mmHg 90%
    Mostrar más